Wind_Speed
34 34 48 62 56 52 44 39 42 46 40 34 41 47 42 37 35 35 36 37 39 39 33 31 28 28 26 28 29 23 23 24 29 33 34 29 26 27 30 31 32 31 31 31
37 52 70 40 44 42 46 44 48 42 35 33 40 41 40 40 39 40 39 40 39 38 34 28 24 28 26 28 24 24 25 25 27 30 28 25 23 26 27 30 32 31 31 27
47 64 38 46 43 43 48 48 44 42 33 31 34 42 45 41 39 40 40 40 38 37 33 27 20 27 24 24 24 21 22 26 27 27 24 19 19 23 25 27 30 32 23 24
39 48 44 43 48 49 50 42 37 34 31 35 30 35 42 36 36 36 34 32 31 30 27 24 23 23 18 18 22 23 24 26 25 20 16 14 17 20 24 24 24 24 24 23
48 40 47 49 56 45 58 35 35 34 32 34 37 34 36 29 34 31 29 29 30 32 27 21 28 24 20 20 22 23 20 20 14 13 12 13 16 22 22 24 22 18 20 17
42 37 34 54 47 37 40 36 33 30 32 28 38 33 41 39 33 32 27 25 22 21 19 21 28 21 21 20 19 15 15 13 13 12 11 15 17 19 20 17 17 17 16 14
41 39 39 31 44 46 37 39 23 22 23 23 25 30 41 28 25 24 19 23 14 12 23 27 22 21 15 13 12 11 13 13 11 11 13 16 17 15 14 13 14 14 10 7
35 39 43 44 39 55 47 46 30 29 13 19 31 26 24 16 11 10 20 12 15 15 21 19 17 15 13 11 10 11 12 11 11 12 14 14 11 12 10 10 12 12 6 3
21 39 39 46 37 35 56 49 58 34 27 19 24 23 22 22 20 13 10 19 15 16 18 18 16 14 11 9 9 11 10 10 11 12 11 9 8 8 9 11 12 7 3 3
20 31 41 37 43 38 47 51 37 42 25 19 17 15 12 4 10 12 13 17 18 16 18 17 16 13 10 10 9 9 10 9 9 9 8 7 7 7 9 11 7 4 1 4
18 11 28 46 49 45 48 44 49 39 34 14 12 18 12 11 8 16 14 16 19 18 23 19 16 11 9 8 9 9 8 7 7 6 6 5 5 6 8 5 4 2 3 6
17 14 24 37 41 43 47 44 49 34 33 32 18 4 4 12 11 16 14 12 16 20 20 17 13 9 7 9 8 7 6 6 4 4 4 3 3 3 4 3 3 3 5 7
12 20 22 8 22 44 46 49 41 45 32 28 13 8 8 16 13 14 10 14 20 21 19 16 12 8 9 8 6 6 5 4 2 3 3 2 1 3 4 3 3 4 6 7
11 20 28 9 19 38 44 49 43 44 33 30 28 13 14 14 13 13 13 16 21 21 15 14 11 9 8 5 6 6 3 2 2 3 2 2 1 4 2 3 5 5 6 7
7 29 32 18 17 18 40 46 40 46 34 26 30 17 15 19 15 11 14 18 19 18 16 12 11 9 7 5 7 5 1 1 2 4 6 2 2 1 4 4 6 6 7 7
11 20 30 19 21 15 30 39 36 41 34 26 17 24 17 17 11 11 9 14 17 17 17 12 10 8 6 4 7 5 2 1 3 5 5 4 5 6 5 7 7 5 5 5
16 9 13 11 22 20 22 36 42 34 37 26 18 20 23 12 9 8 8 6 17 16 17 12 8 6 5 5 7 5 2 2 5 6 5 8 6 8 8 9 8 8 5 4
16 10 10 6 17 10 21 23 32 31 32 27 18 18 15 8 9 6 6 6 10 16 16 16 15 10 5 6 8 6 2 3 6 7 7 9 10 9 8 8 6 5 6 4
12 9 6 5 14 20 11 16 19 30 22 15 14 18 11 10 12 13 17 7 16 16 18 15 14 9 8 5 6 6 3 5 8 8 9 11 9 8 4 6 7 7 6 2
10 9 5 13 8 5 6 5 14 14 13 2 9 10 13 16 9 17 16 11 19 22 19 17 14 9 8 7 8 7 4 6 9 9 11 12 11 7 7 6 5 5 4 5
9 8 12 14 13 8 3 1 18 16 6 4 9 16 25 13 15 16 15 13 20 27 19 20 15 8 8 7 10 9 6 6 9 10 11 12 11 10 9 8 7 6 6 7
6 3 8 9 6 5 9 4 8 8 6 2 3 6 14 15 17 21 16 14 16 24 26 24 21 13 10 7 10 11 8 7 9 10 10 12 8 9 9 7 7 8 8 9
1 2 1 1 6 12 11 14 15 14 4 4 3 4 7 8 11 14 21 18 15 17 26 24 24 18 12 9 8 12 12 9 9 10 11 10 7 8 7 7 7 8 8 9
4 1 4 4 4 13 7 7 9 8 7 4 5 3 4 5 3 6 16 19 18 17 17 23 23 23 15 11 10 12 14 12 10 9 10 11 10 8 7 7 7 7 7 8
9 11 6 3 4 9 1 3 1 4 7 2 4 2 3 2 2 4 8 14 17 18 18 17 24 26 19 13 12 13 16 16 13 11 9 9 10 10 9 9 9 8 8 10
14 13 13 7 5 5 9 5 3 6 7 6 2 2 4 3 4 5 10 16 18 20 19 16 23 27 23 18 15 12 13 18 17 15 13 11 10 10 10 11 11 11 10 10
Wind_Direction
219 211 218 222 223 234 241 245 250 253 255 249 256 263 265 267 265 264 265 265 264 271 275 282 281 270 255 254 255 253 256 260 257 265 272 268 264 258 264 276 283 296 295 297
211 219 231 225 229 233 237 243 247 254 255 253 259 264 265 263 266 267 265 263 265 271 275 271 266 261 250 254 249 254 258 260 265 266 264 257 253 258 269 281 291 295 295 297
218 229 227 227 229 231 235 237 244 251 257 259 262 267 263 264 267 264 264 266 267 268 265 262 256 258 254 251 250 262 260 265 267 266 254 252 255 265 278 287 290 295 301 301
230 233 228 228 229 226 235 233 243 250 255 255 252 266 264 268 269 267 269 266 261 259 257 251 245 238 230 249 263 270 265 275 278 255 244 253 263 273 286 293 282 299 307 308
232 229 227 229 230 224 238 236 240 243 249 260 255 259 268 270 268 271 266 267 261 257 247 239 237 232 245 258 268 263 277 283 256 239 250 259 272 283 284 289 292 304 309 304
239 230 229 230 227 228 233 234 238 239 242 248 249 252 267 268 272 272 269 262 258 247 229 216 228 238 255 259 263 269 279 251 242 249 266 278 280 283 289 295 305 312 304 302
235 233 228 225 223 222 221 220 223 230 229 242 245 245 260 276 278 266 268 240 241 209 204 224 229 252 239 234 253 263 254 244 250 267 279 277 284 281 284 299 304 316 308 300
229 230 221 213 218 214 214 210 209 211 216 235 234 242 262 268 271 258 235 230 211 214 208 212 225 212 215 238 257 251 243 253 267 274 276 280 282 291 302 312 314 314 305 284
268 237 225 220 216 214 212 215 216 232 240 249 243 229 249 264 246 259 226 195 203 198 194 199 204 208 226 241 240 241 249 266 267 272 275 282 288 298 315 311 316 300 273 238
269 266 224 217 217 223 216 214 209 220 243 234 245 221 238 203 220 195 182 185 197 209 199 205 204 216 223 224 236 243 259 262 264 268 280 294 303 314 311 313 300 292 207 180
252 257 235 213 211 212 209 211 211 215 224 230 236 241 228 214 198 184 183 186 203 203 203 207 208 214 217 220 232 244 254 253 268 275 288 296 305 319 319 310 292 246 175 154
232 259 248 217 214 209 209 208 206 217 214 229 250 175 178 193 181 183 193 185 208 196 197 196 208 205 203 224 229 237 238 269 289 285 282 306 310 318 313 291 257 199 180 151
224 231 251 237 222 200 212 206 207 212 216 210 226 164 159 171 169 179 188 179 180 180 178 196 192 192 209 222 230 224 236 296 317 274 282 250 287 294 267 261 206 185 175 150
253 236 238 243 216 197 208 201 204 201 215 199 218 132 171 162 169 169 171 174 168 170 183 181 174 188 208 216 232 212 253 329 289 222 238 239 203 281 219 188 180 162 162 137
285 234 232 264 273 266 205 200 197 195 201 197 198 191 163 152 139 133 158 162 169 171 182 172 173 188 204 206 225 207 238 314 232 215 197 212 204 218 162 150 160 159 161 144
312 254 237 264 265 279 202 205 198 195 195 207 188 189 161 166 144 124 139 176 180 184 181 178 182 193 204 211 211 194 191 259 209 195 208 195 144 123 127 122 139 149 145 140
297 272 232 241 250 247 205 197 197 197 195 198 189 189 194 196 169 142 146 169 192 191 187 176 160 183 202 226 206 188 161 201 187 184 189 178 136 118 123 113 117 120 125 133
272 291 267 247 244 218 192 188 192 193 195 200 202 189 172 176 182 185 162 164 183 198 196 194 186 189 194 224 203 192 161 179 177 178 170 165 136 115 106 98 108 125 110 123
247 257 243 250 222 118 134 169 179 188 178 195 206 207 202 209 217 224 227 194 169 186 203 198 190 187 194 201 196 187 158 169 172 177 167 173 158 149 142 129 97 103 123 123
216 234 237 242 223 169 114 156 167 157 128 126 174 197 213 221 210 217 234 220 180 163 200 195 188 191 194 187 185 183 157 166 172 178 165 171 174 146 145 133 127 113 108 115
204 214 231 245 241 119 67 307 186 188 127 116 186 217 228 224 207 205 216 206 186 186 186 204 206 194 202 193 184 179 172 166 176 182 173 172 171 157 153 140 128 124 109 82
218 223 200 223 231 98 129 171 153 146 85 110 111 217 220 223 205 209 201 195 184 193 193 204 215 211 207 195 192 182 184 177 186 192 183 184 182 173 158 147 136 132 122 100
135 279 323 201 100 66 68 106 129 110 80 37 37 232 210 213 208 209 213 207 188 182 197 204 214 214 220 206 201 191 188 193 195 201 198 192 193 190 163 153 151 144 137 134
31 158 342 204 158 95 106 127 175 160 146 25 4 331 228 211 213 216 208 210 203 182 183 201 212 213 212 210 204 201 195 192 201 203 205 201 193 201 192 174 164 156 152 148
31 30 30 37 229 164 185 341 216 179 175 102 340 4 301 218 297 221 200 205 200 201 185 191 203 213 209 208 209 217 203 193 200 200 204 202 200 198 203 196 184 178 172 156
10 10 22 14 14 223 217 348 267 215 215 230 221 199 332 303 259 232 201 205 204 207 204 200 201 210 207 206 215 226 218 206 201 203 202 204 208 203 205 210 204 197 186 186
Height
3061 3069 3059 3047 3062 3070 3079 3082 3080 3082 3087 3089 3085 3083 3085 3089 3089 3088 3088 3089 3088 3088 3089 3088 3088 3084 3083 3085 3085 3086 3086 3085 3085 3084 3083 3082 3082 3084 3084 3083 3080 3079 3076 3074
3058 3045 3026 3067 3067 3071 3074 3076 3071 3077 3080 3082 3078 3074 3076 3079 3080 3079 3079 3078 3079 3081 3081 3081 3081 3075 3077 3079 3080 3080 3080 3080 3079 3078 3078 3077 3078 3079 3079 3077 3074 3073 3071 3067
3040 3018 3057 3054 3059 3063 3062 3065 3071 3071 3076 3074 3074 3067 3065 3070 3070 3070 3069 3069 3071 3071 3071 3073 3075 3070 3071 3073 3074 3075 3075 3075 3074 3073 3072 3073 3075 3075 3074 3072 3069 3067 3065 3062
3031 3034 3041 3046 3047 3053 3052 3062 3067 3069 3071 3066 3072 3052 3056 3060 3059 3060 3061 3061 3062 3062 3064 3066 3069 3065 3067 3068 3069 3069 3069 3069 3068 3068 3069 3070 3071 3071 3069 3068 3066 3062 3059 3057
3011 3026 3030 3035 3026 3051 3035 3061 3061 3064 3065 3066 3061 3057 3047 3053 3050 3052 3052 3052 3053 3053 3056 3060 3058 3061 3062 3063 3064 3064 3064 3064 3064 3065 3066 3067 3067 3066 3065 3063 3060 3059 3055 3053
3012 3021 3023 3021 3035 3041 3050 3054 3056 3058 3060 3054 3051 3054 3037 3042 3045 3042 3044 3044 3045 3047 3051 3054 3052 3056 3058 3059 3060 3060 3060 3061 3062 3062 3063 3063 3064 3062 3060 3058 3056 3054 3052 3049
3007 3009 3014 3019 3025 3032 3038 3044 3046 3049 3045 3027 3044 3043 3029 3035 3036 3035 3036 3039 3041 3041 3043 3046 3050 3052 3053 3055 3056 3057 3058 3059 3059 3060 3060 3060 3059 3058 3057 3055 3053 3051 3048 3047
2998 3001 3002 3003 3008 3014 3023 3029 3026 3026 3026 3030 3035 3028 3028 3030 3029 3029 3031 3035 3037 3038 3040 3044 3046 3048 3050 3052 3053 3055 3056 3056 3057 3057 3057 3056 3056 3054 3052 3052 3051 3048 3047 3047
2992 2987 2996 3000 3005 3010 3010 3017 3012 3026 3019 3019 3015 3019 3026 3024 3026 3027 3028 3032 3036 3036 3038 3041 3044 3047 3049 3050 3051 3052 3053 3054 3054 3054 3054 3053 3052 3051 3050 3050 3049 3047 3046 3047
2990 2987 2985 2990 3002 3001 3002 3010 3023 3022 3017 3012 3013 3011 3017 3020 3021 3025 3028 3031 3035 3034 3037 3040 3043 3045 3047 3048 3049 3050 3051 3052 3052 3051 3051 3050 3049 3049 3049 3049 3048 3047 3046 3047
2991 2987 2979 2985 2980 2988 2994 2999 3007 3015 3013 3010 3012 3010 3014 3018 3021 3024 3028 3030 3030 3033 3036 3039 3042 3044 3045 3046 3047 3048 3049 3050 3049 3049 3049 3048 3048 3048 3047 3047 3047 3046 3047 3048
2989 2982 2975 2971 2978 2985 2990 2994 3002 3001 3005 3008 3005 3010 3013 3018 3019 3023 3027 3028 3028 3031 3034 3038 3041 3042 3043 3045 3046 3047 3048 3048 3047 3047 3047 3047 3047 3047 3047 3047 3046 3047 3048 3049
2982 2978 2970 2969 2972 2976 2979 2987 2995 3004 3006 3006 3003 3007 3014 3016 3018 3022 3026 3026 3027 3030 3035 3037 3039 3040 3042 3043 3044 3045 3046 3046 3045 3045 3046 3046 3047 3047 3046 3046 3047 3047 3049 3049
2978 2974 2967 2967 2968 2973 2974 2979 2987 2995 2999 3001 3005 3008 3013 3015 3019 3023 3024 3025 3028 3031 3034 3037 3038 3039 3041 3042 3043 3045 3045 3045 3045 3045 3046 3046 3046 3046 3046 3046 3047 3048 3049 3050
2976 2971 2967 2967 2966 2964 2970 2973 2978 2987 2995 2996 3004 3008 3011 3014 3019 3021 3023 3026 3030 3032 3034 3035 3037 3039 3040 3041 3043 3044 3044 3044 3045 3045 3046 3045 3046 3046 3047 3047 3047 3049 3050 3051
2975 2968 2972 2973 2970 2966 2962 2970 2977 2985 2994 2998 3000 3008 3012 3015 3020 3023 3025 3028 3030 3033 3034 3035 3037 3038 3040 3040 3042 3043 3043 3044 3045 3045 3045 3046 3047 3048 3048 3048 3049 3050 3051 3052
2974 2970 2974 2970 2968 2966 2962 2965 2973 2983 2992 2997 3001 3007 3010 3016 3020 3024 3025 3027 3031 3034 3035 3035 3037 3038 3039 3040 3042 3042 3042 3044 3045 3045 3045 3047 3048 3049 3050 3050 3051 3051 3052 3053
2973 2971 2971 2966 2968 2961 2964 2968 2973 2982 2991 2999 3002 3007 3010 3012 3013 3017 3020 3023 3030 3034 3035 3035 3036 3038 3038 3040 3041 3042 3043 3044 3045 3046 3047 3048 3049 3051 3051 3052 3053 3053 3054 3054
2973 2973 2973 2969 2963 2959 2963 2970 2973 2980 2991 2991 2998 3004 3005 3006 3011 3018 3017 3020 3024 3031 3034 3034 3035 3037 3038 3039 3041 3042 3043 3045 3046 3047 3048 3049 3050 3052 3052 3054 3055 3055 3056 3055
2972 2971 2973 2969 2964 2965 2970 2971 2973 2977 2986 2990 2994 2998 3000 3004 3013 3014 3015 3018 3022 3025 3033 3032 3034 3036 3037 3038 3041 3042 3043 3045 3047 3049 3050 3052 3052 3053 3054 3055 3056 3057 3057 3056
2970 2972 2971 2968 2965 2967 2968 2973 2974 2982 2992 2990 2992 2995 2999 3002 3006 3009 3013 3016 3019 3023 3031 3031 3033 3035 3037 3038 3040 3042 3044 3045 3047 3050 3051 3052 3052 3054 3056 3057 3058 3058 3058 3058
2968 2971 2972 2971 2968 2967 2970 2973 2977 2982 2985 2987 2990 2992 2995 3000 3004 3006 3010 3014 3017 3020 3025 3028 3031 3034 3037 3038 3040 3041 3044 3046 3048 3050 3052 3053 3054 3055 3056 3058 3059 3060 3061 3061
2972 2969 2969 2973 2972 2968 2973 2972 2973 2979 2985 2986 2988 2990 2993 2996 2999 3003 3007 3011 3015 3017 3021 3026 3030 3033 3036 3038 3039 3041 3043 3046 3048 3050 3052 3054 3055 3056 3057 3059 3060 3061 3062 3063
2972 2971 2970 2972 2973 2970 2972 2971 2973 2977 2980 2985 2988 2989 2991 2993 2997 2999 3004 3008 3011 3015 3019 3024 3028 3031 3034 3037 3039 3041 3042 3045 3048 3050 3052 3054 3056 3057 3058 3060 3062 3063 3064 3066
2975 2973 2971 2970 2971 2973 2975 2974 2975 2977 2978 2981 2984 2987 2988 2991 2994 2996 3000 3004 3007 3012 3017 3021 3025 3028 3032 3035 3037 3039 3041 3044 3047 3050 3052 3054 3056 3058 3059 3061 3063 3064 3065 3068
2976 2974 2974 2973 2972 2972 2973 2974 2976 2977 2978 2979 2981 2984 2986 2989 2991 2993 2995 2999 3003 3008 3013 3017 3021 3025 3029 3033 3036 3038 3040 3042 3045 3049 3051 3054 3056 3058 3060 3061 3062 3064 3066 3068